TimeCST,TemperatureF,Dew PointF,Humidity,Sea Level PressureIn,VisibilityMPH,Wind Direction,Wind SpeedMPH,Gust SpeedMPH,PrecipitationIn,Events,Conditions,WindDirDegrees,DateUTC
12:53 AM,28.0,18.0,66,30.17,10.0,NNW,6.9,-,N/A,,Clear,340,2013-01-25 06:53:00
1:53 AM,28.9,19.0,67,30.17,10.0,NNW,9.2,-,N/A,,Clear,340,2013-01-25 07:53:00
2:53 AM,32.0,21.0,64,30.18,10.0,NNW,12.7,-,N/A,,Clear,340,2013-01-25 08:53:00
3:53 AM,32.0,21.0,64,30.18,10.0,NNW,15.0,-,N/A,,Clear,330,2013-01-25 09:53:00
4:53 AM,30.9,19.9,64,30.19,10.0,NNW,10.4,-,N/A,,Clear,330,2013-01-25 10:53:00
5:53 AM,28.9,19.9,69,30.20,10.0,NNW,8.1,-,N/A,,Clear,330,2013-01-25 11:53:00
6:53 AM,28.0,19.9,72,30.22,10.0,NNW,4.6,-,N/A,,Clear,340,2013-01-25 12:53:00
7:53 AM,28.0,19.9,72,30.23,10.0,Calm,Calm,-,N/A,,Clear,0,2013-01-25 13:53:00
8:53 AM,33.1,21.0,61,30.23,10.0,WNW,5.8,-,N/A,,Clear,290,2013-01-25 14:53:00
9:53 AM,37.0,23.0,57,30.25,10.0,WSW,4.6,-,N/A,,Clear,250,2013-01-25 15:53:00
10:53 AM,44.1,24.1,45,30.25,10.0,WNW,6.9,-,N/A,,Clear,300,2013-01-25 16:53:00
11:53 AM,46.9,21.9,37,30.22,10.0,West,6.9,-,N/A,,Clear,280,2013-01-25 17:53:00
12:53 PM,50.0,19.0,29,30.17,10.0,Variable,3.5,-,N/A,,Clear,0,2013-01-25 18:53:00
1:53 PM,51.1,19.9,29,30.16,10.0,West,5.8,-,N/A,,Clear,260,2013-01-25 19:53:00
2:53 PM,52.0,19.0,27,30.13,10.0,SSW,10.4,-,N/A,,Clear,210,2013-01-25 20:53:00
3:53 PM,53.1,18.0,25,30.12,10.0,WSW,10.4,-,N/A,,Clear,240,2013-01-25 21:53:00
4:53 PM,50.0,19.9,31,30.13,10.0,WSW,4.6,-,N/A,,Clear,240,2013-01-25 22:53:00
5:53 PM,39.9,17.1,40,30.15,10.0,SSW,5.8,-,N/A,,Clear,200,2013-01-25 23:53:00
6:53 PM,33.1,15.1,48,30.17,10.0,Calm,Calm,-,N/A,,Clear,0,2013-01-26 00:53:00
7:53 PM,28.9,15.1,56,30.19,10.0,Calm,Calm,-,N/A,,Clear,0,2013-01-26 01:53:00
8:53 PM,26.1,14.0,60,30.18,10.0,Calm,Calm,-,N/A,,Clear,0,2013-01-26 02:53:00
9:53 PM,25.0,16.0,69,30.17,10.0,Calm,Calm,-,N/A,,Clear,0,2013-01-26 03:53:00
10:53 PM,21.0,12.9,71,30.17,10.0,Calm,Calm,-,N/A,,Clear,0,2013-01-26 04:53:00
11:53 PM,21.0,12.9,71,30.17,10.0,Calm,Calm,-,N/A,,Clear,0,2013-01-26 05:53:00